Main page
METAR-TAF:

METAR-TAF

Airports :

Clovis Municipal Airport

Clovis, New Mexico, United States

latitude: 34-26N, longitude: 103-05W, elevation: 4212 ft

Current weather observation

The report was made 26 minutes ago, at 14:56 UTC
Wind 5 mph from the North/Northeast
Temperature 25°F
Humidity 93%
Pressure 30.31 in. Hg
Visibility: 7 miles
Overcast at a height of 500 ft

METAR: KCVN 181456Z AUTO 02004KT 7SM OVC005 M04/M05 A3031 RMK AO2 SLP297 T10391050 51006 FZRANO

Time: 08:22 (15:22 UTC)


TAF: missing

Weather observations and forecasts of more than 4000 airports (METAR and TAF reports).

The available stations are represented by yellow and red dots on the map.

Hover mouse over dot to see the name of the station.

Then click to see weather observations and forecasts.

To change the map : click on the green buttons with a black cross to zoom in, on the green button with a dash to zoom out, or on the green arrows for adjacent maps.


METAR-TAF: